www.pogodaiklimat.ru

Погода и климат >> Архив погоды >> Канада >> Rankin Inlet


ПОГОДА в Rankin Inlet

  • Прогноз погоды в Rankin Inlet
  • Монитор погоды в Rankin Inlet
  • Климат города

АРХИВ ПОГОДЫ в Rankin Inlet

Время (UTC), дата Ветер
(напр.,м/с)
 
Видим.   Явления Облачность Т
(С)
Тd
(С)
f
(%)
Тe
(С)
Тes
(С)
Комфортность P
(гПа)
Po
(гПа)
Тmin
(С)
Tmax
(С)
R
(мм)
R24
(мм)
S
(см)
00 18.05 СЗ 10 6000 м слабый ливневой снег 9/9 300 м
[Sc]
-8.1 -10.4 83 -18 -18 1021.7 1017.4 -12.7 -7.9 0.2 22
03 18.05 СЗ 10 16 км 10/10 300 м
[]
-9.1 -11.6 82 -20 -20 1021.7 1017.4
06 18.05 СЗ 10 16 км слабый снег {ливн. осадки} 10/10 300 м
[Sc]
-10.0 -12.3 83 -21 -21 1022.4 1018.1 -12.7 -7.9 0.2 161
09 18.05 СЗ 8 16 км 10/10 300 м
[]
-10.3 -12.2 86 -20 -20 1022.8 1018.5
12 18.05 СЗ 7 16 км слабый снег 9/9 300 м
[Sc]
-10.8 -13.0 84 -20 -20 1023.1 1018.8 -10.9 -7.9 0.2 22
15 18.05 СЗ 7 24 км 3/3 200 м
[]
-10.2 -12.5 83 -19 -17 1022.7 1018.4
18 18.05 СЗ 6 24 км {снег} 5/1 300 м
[Sc Ci fib]
-7.5 -10.2 81 -16 -12 1022.5 1018.2 -10.9 -7.5 0.0 21
21 18.05 СЗ 6 24 км 4/4 300 м
[]
-5.8 -8.9 79 -13 -11 1022.2 1017.9
00 19.05 СЗ 5 24 км 1/0
[Ci fib]
-4.9 -7.8 80 -12 -10 1021.5 1017.2 -10.9 -4.8 20
03 19.05 З 4 24 км 1/0
[]
-7.5 -9.2 88 -14 -14 1020.4 1016.1
06 19.05 ЮЗ 3 24 км 1/0
[Ci fib]
-9.6 -10.9 90 -16 -16 1018.8 1014.5 -10.9 -4.8 101
09 19.05 ЮЗ 3 24 км 3/0
[]
-10.7 -12.2 89 -17 -17 1017.0 1012.7
12 19.05 ЮВ 2 24 км 9/0
[Ac As]
-8.5 -10.7 84 -12 -11 1013.6 1009.4 -10.9 -4.8 20
15 19.05 ЮВ 4 24 км 10/10 1000 м
[]
-5.9 -7.8 86 -12 -12 1009.8 1005.6
18 19.05 800 м слабый снег н/о -3.6 -4.5 93 -11 -9 1007.1 1002.9 -10.9 -3.4 0.8 20
21 19.05 СВ 7 800 м 8/8 300 м
[]
-2.1 -3.7 89 -10 -9 1008.1 1003.9
00 20.05 С 7 12 км слабый снег 10/10 200 м
[Sc]
-2.7 -4.0 91 -11 -11 1008.9 1004.7 -10.9 -2.0 4 24
03 20.05 С 13 4800 м 9/9 200 м
[]
-5.9 -6.8 93 -17 -17 1010.1 1005.9
06 20.05 СЗ 9 16 км в посл. час снег 3/3 600 м
[Sc]
-11.6 -13.5 86 -22 -22 1012.5 1008.3 -11.6 -2.0 0.2 52
09 20.05 СЗ 10 16 км ясно -13.2 -15.3 84 -24 -24 1013.7 1009.4
12 20.05 СЗ 10 24 км позёмок 9/9 600 м
[Sc]
-10.1 -11.9 87 -21 -21 1014.4 1010.2 -13.3 -2.0 24
15 20.05 СЗ 11 12 км 5/5 300 м
[]
-9.1 -11.5 83 -20 -20 1015.0 1010.7
18 20.05 СЗ 12 12 км позёмок {снег} 8/6 300 м
[Sc Ac As]
-8.2 -10.8 81 -19 -19 1015.4 1011.1 -13.3 -7.8 0.0 23
21 20.05 СЗ 10 24 км 3/3 300 м
[]
-7.4 -10.3 80 -17 -17 1015.5 1011.2
00 21.05 СЗ 10 24 км позёмок 9/9 300 м
[Sc]
-7.3 -9.9 82 -18 -18 1016.2 1011.9 -13.3 -6.9 23
03 21.05 СЗ 8 24 км 9/9 300 м
[]
-7.8 -9.9 85 -17 -17 1016.4 1012.1
06 21.05 СЗ 8 19 км слабый снег 10/10 300 м
[Sc]
-8.5 -10.5 85 -18 -18 1016.4 1012.1 -13.3 -6.9 0.0 82
09 21.05 СЗ 8 24 км 10/10 1500 м
[]
-8.9 -10.8 86 -18 -18 1016.6 1012.3
12 21.05 СЗ 6 24 км позёмок {снег} 3/3 1500 м
[Sc]
-10.4 -12.6 84 -19 -18 1017.5 1013.2 -10.4 -6.9 0.0 23
15 21.05 СЗ 7 24 км 6/6 1500 м
[]
-8.8 -11.2 83 -18 -17 1018.5 1014.2
18 21.05 С 7 24 км 8/8 300 м
[Sc]
-5.9 -9.3 77 -14 -14 1019.2 1014.9 -10.8 -5.9
21 21.05 С 8 24 км 9/9 300 м
[]
-5.3 -8.4 79 -14 -14 1020.2 1015.9
00 22.05 С 6 24 км 6/6 1000 м
[Sc]
-5.2 -7.7 83 -13 -12 1021.4 1017.1 -10.8 -4.5
03 22.05 СЗ 5 24 км 1/1 1000 м
[]
-9.1 -10.4 90 -17 -17 1022.0 1017.7
06 22.05 С 4 24 км 1/1 1000 м
[Sc]
-10.9 -12.1 91 -18 -18 1022.7 1018.4 -11.8 -4.5 201
09 22.05 С 3 24 км 5/5 1000 м
[]
-10.9 -12.2 90 -16 -16 1023.5 1019.2
12 22.05 С 3 24 км 9/9 1000 м
[Sc]
-8.1 -9.6 89 -13 -13 1024.1 1019.8 -12.8 -4.5
15 22.05 СЗ 2 24 км 5/5 600 м
[]
-6.0 -8.8 81 -10 -5 1024.4 1020.1
18 22.05 З 2 24 км 5/1 600 м
[Sc Ci fib]
-4.4 -7.5 79 -9 +2 1023.7 1019.4 -12.8 -4.4 21
21 22.05 ЮЗ 3 24 км 9/9 300 м
[]
-4.0 -7.8 75 -9 -9 1022.9 1018.6
00 23.05 ЮЗ 4 24 км 10/4 300 м
[Sc Ac As]
-4.7 -7.6 80 -11 -11 1021.4 1017.1 -12.8 -3.5 20
03 23.05 Ю 5 16 км 9/9 300 м
[]
-5.6 -7.4 87 -13 -13 1019.5 1015.2
06 23.05 Ю 5 3200 м слабый снег 10/10 300 м
[Sc]
-5.5 -6.2 95 -13 -13 1017.4 1013.2 -12.8 -3.5 0.0 20
09 23.05 Ю 7 12 км 10/10 600 м
[]
-4.0 -4.8 94 -12 -12 1014.8 1010.6
12 23.05 ЮВ 9 12 км слабый снег 10/10 300 м
[St]
-3.1 -4.0 93 -12 -12 1011.9 1007.7 -6.0 -3.5 3 23
15 23.05 ЮВ 11 12 км 10/10 100 м
[]
-1.9 -3.3 90 -11 -11 1009.2 1005.0
18 23.05 ЮВ 10 9000 м позёмок {снег} 10/10 100 м
[St]
-1.2 -2.8 89 -10 -10 1007.9 1003.7 -6.0 -1.1 0.0 19
21 23.05 ЮВ 8 16 км 10/10 100 м
[]
-1.4 -3.0 89 -9 -9 1007.4 1003.2
00 24.05 ЮВ 5 4800 м слабый снег 10/10 100 м
[Frnb]
-1.7 -2.5 94 -8 -8 1007.5 1003.3 -5.8 -1.1 0.0 19
03 24.05 В 3 4800 м 10/10 50 м
[]
-2.3 -2.7 97 -7 -7 1007.7 1003.5
06 24.05 СВ 2 4800 м дымка {снег} 10/10 50 м
[St]
-2.9 -3.2 98 -7 -7 1008.3 1004.1 -5.8 -1.1 0.0 161
09 24.05 СВ 2 6000 м 10/10 50 м
[]
-2.9 -3.2 98 -7 -7 1009.4 1005.2
12 24.05 С 3 24 км 10/10 200 м
[Sc]
-2.7 -3.7 93 -8 -8 1010.6 1006.4 -3.1 -1.1 19
15 24.05 С 4 24 км 10/10 300 м
[]
-1.7 -3.3 89 -7 -7 1011.8 1007.6
18 24.05 С 6 24 км 10/10 200 м
[St]
-1.3 -3.0 88 -8 -8 1013.0 1008.8 -3.1 -1.2 18
21 24.05 С 8 24 км 10/10 200 м
[]
-0.5 -2.9 84 -8 -8 1015.0 1010.8

 

Местоположение метеостанции Rankin Inlet (Канада): широта 62.82 долгота -92.11 высота над уровнем моря 31 м.

В архиве по умолчанию представлена погода в Rankin Inlet за последнюю неделю. Архивные данные за месяц целиком и за предыдущие месяцы, начиная с января 2011 года, Вы можете получить, выбрав интересующий диапазон дат из раскрывающегося списка и нажав кнопку "Ввод!".


*Определитесь, кто Вы:
робот инопланетянин человек

Внимание! Время в таблицах - всемирное. Для получения местного времени необходимо прибавить поправку, которая в Rankin Inlet равна -6 ч.

Смотрите также архив погоды в соседних городах и на ближайших метеорологических станциях:

Погода в Arviat Climate (Канада) (217 км)
Погода в Arviat (Канада) (217 км)
Погода в Arviat Airport (Канада) (218 км)
Погода в Baker Lake Climate (Канада) (255 км)
Погода в Baker Lake Airport (Канада) (256 км)
Погода в Wager Bay (Канада) (364 км)
Погода в Back River MAPS (Канада) (419 км)
Погода в Coral Harbour Arpt (Канада) (460 км)
Погода в Churchill Climate (Канада) (468 км)
Погода в Dubawnt Lake (Канада) (486 км)

Пояснения к столбцам:

Ветер - указаны скорость ветра в м/с - средняя за 10 мин, порывы в срок и между сроками (в фигурных скобках) и направление, откуда дует ветер: С - северный, СВ - северо-восточный, В - восточный, ЮВ - юго-восточный, Ю - южный, ЮЗ - юго-западный, З - западный, СЗ - северо-западный.
Видимость - горизонтальная дальность видимости в метрах или километрах. При видимости от 1 до 10 км при отсутствии осадков обычно наблюдается дымка, при ухудшении видимости до 1 км и менее - туман. В сухую погоду видимость может ухудшаться дымом, пылью или мглою.
Явления - указаны атмосферные явления, наблюдавшиеся в срок или в последний час перед сроком; фигурными скобками обозначены явления, наблюдавшиеся между сроками (за 1-3 часа до срока); квадратными скобками обозначены град или гололедные отложения с указанием их диаметра в мм.
Облачность - указаны через наклонную черту общая и нижняя облачность в баллах и высота нижней границы облаков в метрах; квадратными скобками обозначены формы облаков: Ci - перистые, Cs - перисто-слоистые, Cc - перисто-кучевые, Ac - высококучевые, As - высокослоистые, Sc - слоисто-кучевые, Ns - слоисто-дождевые, Cu - кучевые, Cb - кучево-дождевые. Подробнее классификацию облаков см. в Атласе облаков (PDF).
T - Температура воздуха - температура, измеренная на высоте 2 м над землей.
Td - Температура точки росы - температура, при понижении до которой содержащийся в воздухе водяной пар достигнет насыщения.
f - Относительная влажность воздуха - влажноcть воздуха, измеренная на высоте 2 м над землей.
Te - Эффективная температура - температура, которую ощущает одетый по сезону человек в тени. Характеристика душности погоды. При расчете учитывается влияние влажности воздуха и скорости ветра на теплоощущения человека.
Tes - Эффективная температура на солнце - температура, которую ощущает человек, с поправкой на солнечный нагрев. Характеристика знойности погоды. Зависит от высоты солнца над горизонтом, облачности и скорости ветра. Ночью, в пасмурную погоду, а также при ветре 12 м/с и более поправка равна нулю.
P - Атмосферное давление - приведенное к уровню моря атмосферное давление.
Po - Атмосферное давление - измеренное на уровне метеостанции атмосферное давление.
Tmin - Минимальная температура - минимум температуры воздуха на высоте 2 м над землей.
Tmax - Максимальная температура - максимум температуры воздуха на высоте 2 м над землей.
R - Количество осадков - Количество выпавших осадков за период времени, мм. При наведении курсора мыши на число - период времени, за который выпало указанное количество осадков.
R24 - Количество осадков - Количество выпавших осадков за 24 часа, мм.
S - Снежный покров - Высота снежного покрова, см. При наведении курсора мыши на число - состояние снежного покрова и степень покрытия местности в баллах.